Tracking 34408 objects as of 14-Jun-2026
HD Live streaming from Space Station
objects crossing your sky now

SL-12 R/B(2)

Track SL-12 R/B(2) now!


NORAD ID: 26393
Int'l Code: 2000-035D
Perigee: 9,305.9 km
Apogee: 43,698.6 km
Inclination: 61.8 °
Period: 988.6 minutes
Semi major axis: 32873 km
RCS: 21.0772 m2 (large)
Launch date: June 30, 2000
Source: Commonwealth of Independent States (former USSR) (CIS)
Launch site: TYURATAM MISSILE AND SPACE COMPLEX (TTMTR)

Note: This is a ROCKET BODY
Your satellite tracking list
Your tracking list is empty




NASA's NSSDC Master Catalog

Two Line Element Set (TLE):
1 26393U 00035D   26164.18713028  .00000217  00000-0  00000+0 0  9999
2 26393  61.8141 167.1312 5231106 292.1629  21.4898  1.45659625138036
Source of the keplerian elements: AFSPC